Location: Clinton NY
(43.0598°N, 75.3602°W)
Time: 06:26:49
(UTC-04:00)

Daily predictions for brighter satellites

Satellite Brightness Start Highest point End
(mag) Time Altitude Azimuth Time Altitude Azimuth Time Altitude Azimuth
ERS-1 Rocket 4.2 20:09:31 10° ESE 20:13:28 24° ENE 20:17:26 10° NNE
Cosmos 1975 3.6 20:10:19 10° SSE 20:13:59 33° E 20:17:41 10° NNE
Lacrosse 5 rocket 1.2 20:14:19 10° NW 20:18:03 73° SW 20:21:40 10° SE
FENGYUN 3A 3.7 20:12:57 10° SSE 20:18:14 66° ENE 20:23:34 10° N
BREEZE-M DEB (TANK) 4.1 20:16:58 10° NW 20:19:50 41° NNE 20:27:10 10° E
Cosmos 1656 4.0 20:14:48 10° S 20:20:03 43° ESE 20:25:17 10° NE
Cosmos 1934 Rocket 4.0 20:16:08 10° S 20:22:18 90° W 20:28:35 10° N
Helios 1B rocket 3.6 20:20:38 10° N 20:24:38 49° WNW 20:28:36 10° SSW
Cosmos 1544 Rocket 4.2 20:22:18 10° SSW 20:26:38 62° W 20:31:03 10° N
Cosmos 1898 Rocket 3.9 20:21:53 10° N 20:27:00 46° ENE 20:32:01 10° SE
Okean 2 4.1 20:23:05 10° NNW 20:27:11 57° W 20:31:15 10° S
DELTA 2 R/B (1) 4.1 20:21:57 10° W 20:27:20 50° SSW 20:32:20 12° ESE
Cosmos 2227 Rocket 2.4 20:22:41 10° NNW 20:28:21 74° WSW 20:33:58 10° SSE
CZ-2D R/B 3.2 20:24:54 10° SSE 20:28:46 77° ENE 20:32:40 10° N
Resurs 01 Rocket 3.0 20:26:12 10° S 20:30:23 41° W 20:34:36 10° NNW
Cosmos 1500 3.8 20:32:30 10° SSE 20:35:56 35° E 20:39:24 10° NNE
Meteor 1-12 Rocket 4.3 20:30:46 10° S 20:36:28 70° E 20:42:18 10° NNE
CZ-4 DEB 3.8 20:34:36 14° SE 20:36:41 28° ENE 20:39:26 10° N
OAO 2 Rocket 4.2 20:36:01 10° WSW 20:40:28 33° S 20:43:52 16° ESE
Cosmos 468 Rocket 4.2 20:36:40 10° S 20:41:31 46° ESE 20:46:25 10° NNE
Cosmos 2297 Rocket 2.4 20:37:47 10° NNW 20:43:27 78° WSW 20:49:06 10° SSE
Cosmos 1340 4.1 20:41:06 10° NNE 20:44:04 21° ENE 20:45:27 17° E
Cosmos 2082 4.3 20:38:40 10° NNW 20:44:12 59° WSW 20:49:42 10° S
ALOS 2.8 20:44:11 10° S 20:48:47 60° W 20:53:26 10° NNW
Cosmos 1346 Rocket 4.5 20:46:21 10° NNW 20:49:58 35° W 20:53:37 10° SSW
Cosmos 1939 Rocket 3.6 20:49:05 18° SE 20:51:43 38° ENE 20:55:36 10° N
Cosmos 1814 Rocket 4.2 20:47:58 10° S 20:53:06 50° ESE 20:58:13 10° NNE
USA 186 2.4 20:52:48 10° S 20:55:48 51° W 20:58:36 10° NNW
OTV 4 3.1 20:56:38 10° SW 20:57:19 11° SSW 20:58:01 10° S
Cosmos 1515 3.6 20:54:57 10° N 20:58:50 89° W 21:02:35 10° S
ASTEX 1 4.4 21:00:26 10° NNE 21:04:41 27° E 21:06:04 24° ESE
Cosmos 1825 Rocket 3.8 21:03:16 10° N 21:07:34 48° ENE 21:09:42 26° SE
Cosmos 2173 Rocket 4.1 21:01:24 10° S 21:07:36 58° E 21:13:47 10° NNE
Cosmos 1743 2.7 21:13:07 20° S 21:15:36 59° E 21:19:28 10° NNE
RESURS DK-1 2.3 21:13:30 10° NNW 21:17:40 87° WSW 21:19:38 30° SSE
Tiangong 1 1.1 21:15:26 10° W 21:18:29 57° SSW 21:18:48 53° SSE
Cosmos 1953 Rocket 3.9 21:14:12 10° N 21:18:31 46° ENE 21:19:56 34° SE
BREEZE-M DEB (TANK) 3.9 21:02:57 10° SW 21:18:54 70° SSE 21:22:27 19° ENE
Cosmos 1697 Rocket 2.7 21:14:05 10° SSW 21:19:45 85° WNW 21:25:26 10° NNE
Cosmos 1066 Rocket 4.4 21:14:33 10° NNW 21:20:14 78° W 21:25:46 11° S
H-2A R/B 2.2 21:20:45 37° ESE 21:21:59 51° ENE 21:26:01 10° N
Cosmos 2100 Rocket 3.9 21:16:34 10° S 21:22:51 82° E 21:29:06 10° N
Iridium 4 Rocket 4.1 21:18:18 10° N 21:23:13 53° W 21:27:40 10° SSW
Envisat 2.9 21:23:26 24° SSE 21:26:34 83° ENE 21:31:41 10° NNW
Cosmos 1937 Rocket 3.6 21:23:29 10° NNW 21:28:45 74° WSW 21:32:04 23° S
Cosmos 2228 4.3 21:30:30 24° ENE 21:30:30 24° ENE 21:33:03 10° NNE
SL-16 R/B 3.3 21:31:23 24° E 21:31:23 24° E 21:34:49 10° NE
Tsikada Rocket 4.4 21:26:03 10° N 21:32:12 45° ENE 21:34:27 33° ESE
Cosmos 2061 Rocket 4.0 21:26:42 10° S 21:33:01 89° E 21:39:18 10° N
ARGOS 3.8 21:34:52 33° E 21:36:03 37° ENE 21:40:58 10° N
Cosmos 1758 Rocket 3.5 21:32:49 10° N 21:37:09 62° E 21:37:54 52° SE
Cosmos 990 Rocket 4.0 21:34:22 10° NNW 21:39:39 80° WSW 21:42:00 34° S
deb Chang Zheng 4 3.5 21:38:18 10° NNE 21:42:46 76° ESE 21:44:26 38° S
Lacrosse 5 2.4 21:38:14 10° NW 21:43:08 50° SW 21:44:53 34° S
Cosmos 1980 Rocket 2.1 21:37:34 10° SSW 21:43:15 89° WNW 21:48:59 10° NNE
Cosmos 1842 3.3 21:42:19 10° N 21:46:02 61° ENE 21:46:02 61° ENE
H-2A R/B 3.3 21:46:51 23° ENE 21:46:51 23° ENE 21:50:40 10° NNE
MetOp-B 4.0 21:46:49 44° SE 21:48:30 73° ENE 21:53:52 10° N
SPOT 5 2.8 21:49:22 46° SSE 21:50:52 87° ENE 21:55:40 10° NNW
ERS-1 Rocket 3.9 21:48:21 17° SSW 21:51:58 44° W 21:56:47 10° NNW
Cosmos 1459 Rocket 4.3 21:46:06 10° SSW 21:52:06 64° W 21:58:11 10° N
Cosmos 1725 Rocket 3.9 21:53:16 38° SSE 21:55:43 67° E 22:01:55 10° NNE
BREEZE-M TANK 3.1 21:49:46 10° WNW 21:57:39 50° SW 21:58:04 48° SSW
Cosmos 836 Rocket 4.4 21:56:49 50° SSE 21:58:04 68° ESE 22:03:21 10° NNE
Cosmos 1666 3.0 22:00:58 60° N 22:00:58 60° N 22:04:09 10° N
Cosmos 2058 Rocket 3.0 22:03:45 70° SSW 22:04:15 86° W 22:08:48 10° N
Cosmos 2098 Rocket 3.9 22:00:54 25° S 22:05:07 88° E 22:10:49 10° N
Cosmos 1763 Rocket 3.8 22:00:39 10° SSW 22:05:42 64° WNW 22:10:46 10° NNE
SPOT 1/Viking Rocket 3.4 22:05:15 64° ESE 22:05:52 71° ENE 22:11:04 10° N
Cosmos 2263 Rocket 2.8 22:03:34 10° NNW 22:08:49 40° ENE 22:09:09 39° ENE
Cosmos 1606 Rocket 4.4 22:06:33 25° SW 22:08:49 48° WNW 22:13:08 10° N
Meteor 2-5 Rocket 4.3 22:07:35 10° N 22:13:10 42° ENE 22:13:10 42° ENE
Terra 3.0 22:15:54 30° NE 22:15:54 30° NE 22:19:15 10° N
Cosmos 1125 Rocket 3.3 22:10:08 10° NNW 22:15:23 87° ENE 22:15:42 79° SE
Meteor 1-15 Rocket 4.2 22:13:43 48° S 22:15:32 89° E 22:21:26 10° N
YAOGAN 6 3.5 22:16:13 48° WNW 22:16:13 48° WNW 22:19:16 10° NNW
Cosmos 2322 Rocket 2.1 22:16:55 67° E 22:16:55 67° E 22:22:17 10° NNE
Cosmos 2233 Rocket 3.9 22:19:10 62° ESE 22:19:34 63° E 22:25:44 10° NNE
USA 215 3.7 22:18:44 38° E 22:20:53 53° NNE 22:27:12 10° NW
BREEZE-M DEB (TANK) 3.8 22:04:16 10° WNW 22:24:08 80° NNE 22:25:47 54° E
Meteor 2-9 Rocket 4.5 22:26:59 39° SW 22:28:54 62° WNW 22:34:15 10° N
Cosmos 841 Rocket 4.4 22:24:12 10° SW 22:29:14 46° WNW 22:34:17 10° N
Cosmos 540 Rocket 4.0 22:42:33 51° NNE 22:42:33 51° NNE 22:46:24 10° NNE
Cosmos 372 Rocket 4.5 22:50:31 10° NNW 22:54:42 56° NW 22:54:42 56° NW
Cosmos 2278 Rocket 4.4 22:55:05 10° NNE 22:58:00 14° NE 22:58:31 14° NE
Cosmos 1464 Rocket 4.4 23:06:59 55° NE 23:06:59 55° NE 23:12:04 10° NNE
SL-16 R/B 3.0 23:13:10 44° W 23:13:58 47° WNW 23:19:28 10° NNE
Cosmos 1844 Rocket 4.0 23:15:39 10° N 23:19:29 31° NNE 23:19:29 31° NNE
H-2A R/B 3.4 23:27:30 34° WNW 23:27:30 34° WNW 23:30:43 10° NNW
Cosmos 2360 Rocket 3.4 23:30:08 35° NNE 23:30:08 35° NNE 23:33:18 10° NNE
Cosmos 2263 Rocket 3.9 23:47:45 10° NW 23:50:51 25° WNW 23:50:51 25° WNW
Terra 4.0 23:54:47 21° WNW 23:54:47 21° WNW 23:56:51 10° NW
